When you browse on this site, cookies collect data to enhance your experience and personalize the content and advertising you see.
Visit our Privacy Policy to learn more. By continuing to use the site, you agree to this use of cookies and data.
  • In Hungary
  • List of Countries
  • For 7 days
  • Water Temperature
  • Satellite Maps
  • Weather Map
  • News
  • Weather Widgets
  • user-avatar
    Login

    Hourly Weather Kaduna

    Today, 19 January, Saturday

    Time Temperature Precipitation Wind Pressure Humidity
    00:00 +24°C° 0 mm 2 mps 709 mmHg 14%
    01:00 +24°C° 0 mm 2 mps 709 mmHg 14%
    02:00 +23°C° 0 mm 2 mps 709 mmHg 15%
    03:00 +23°C° 0 mm 2 mps 709 mmHg 15%
    04:00 +22°C° 0 mm 1 mps 709 mmHg 16%
    05:00 +22°C° 0 mm 1 mps 709 mmHg 16%
    06:00 +22°C° 0 mm 1 mps 709 mmHg 17%
    07:00 +25°C° 0 mm 2 mps 710 mmHg 15%
    08:00 +28°C° 0 mm 2 mps 710 mmHg 13%
    09:00 +31°C° 0 mm 2 mps 711 mmHg 11%
    10:00 +34°C° 0 mm 2 mps 711 mmHg 10%
    11:00 +36°C° 0 mm 2 mps 710 mmHg 9%
    12:00 +38°C° 0 mm 2 mps 710 mmHg 8%
    13:00 +37°C° 0 mm 1 mps 709 mmHg 8%
    14:00 +37°C° 0 mm 1 mps 709 mmHg 8%
    15:00 +37°C° 0 mm 1 mps 708 mmHg 8%
    16:00 +35°C° 0 mm 1 mps 708 mmHg 9%
    17:00 +34°C° 0 mm 2 mps 708 mmHg 10%
    18:00 +31°C° 0 mm 2 mps 708 mmHg 11%
    19:00 +30°C° 0 mm 2 mps 709 mmHg 13%
    20:00 +29°C° 0 mm 1 mps 709 mmHg 14%
    21:00 +28°C° 0 mm 1 mps 710 mmHg 15%
    22:00 +27°C° 0 mm 1 mps 710 mmHg 17%
    23:00 +26°C° 0 mm 1 mps 709 mmHg 18%

    Tomorrow, 20 January, Sunday

    Time Temperature Precipitation Wind Pressure Humidity
    00:00 +26°C° 0 mm 1 mps 709 mmHg 19%
    01:00 +25°C° 0 mm 1 mps 709 mmHg 19%
    02:00 +25°C° 0 mm 1 mps 708 mmHg 19%
    03:00 +24°C° 0 mm 1 mps 708 mmHg 20%
    04:00 +24°C° 0 mm 1 mps 708 mmHg 20%
    05:00 +24°C° 0 mm 1 mps 708 mmHg 20%
    06:00 +24°C° 0 mm 1 mps 708 mmHg 20%
    07:00 +27°C° 0 mm 1 mps 709 mmHg 18%
    08:00 +30°C° 0 mm 1 mps 710 mmHg 15%
    09:00 +34°C° 0 mm 2 mps 711 mmHg 13%
    10:00 +35°C° 0 mm 2 mps 710 mmHg 13%
    11:00 +36°C° 0 mm 2 mps 710 mmHg 14%
    12:00 +38°C° 0 mm 3 mps 710 mmHg 15%
    13:00 +38°C° 0 mm 2 mps 709 mmHg 15%
    14:00 +38°C° 0 mm 2 mps 708 mmHg 15%
    15:00 +38°C° 0 mm 2 mps 708 mmHg 15%
    16:00 +37°C° 0 mm 2 mps 708 mmHg 18%
    17:00 +34°C° 0 mm 1 mps 708 mmHg 21%
    18:00 +32°C° 0 mm 1 mps 708 mmHg 24%
    19:00 +31°C° 0 mm 1 mps 709 mmHg 27%
    20:00 +30°C° 0 mm 1 mps 709 mmHg 30%
    21:00 +29°C° 0 mm 1 mps 710 mmHg 33%
    22:00 +29°C° 0 mm 1 mps 709 mmHg 35%
    23:00 +28°C° 0 mm 1 mps 709 mmHg 37%

    Day after tomorrow, 21 January, Monday

    Time Temperature Precipitation Wind Pressure Humidity
    00:00 +28°C° 0 mm 1 mps 709 mmHg 40%
    01:00 +27°C° 0 mm 1 mps 708 mmHg 40%
    02:00 +26°C° 0 mm 1 mps 708 mmHg 40%
    03:00 +26°C° 0 mm 1 mps 708 mmHg 40%
    04:00 +25°C° 0 mm 1 mps 708 mmHg 39%
    05:00 +25°C° 0 mm 1 mps 708 mmHg 39%
    06:00 +25°C° 0 mm 1 mps 708 mmHg 39%
    07:00 +27°C° 0 mm 1 mps 709 mmHg 33%
    08:00 +30°C° 0 mm 1 mps 710 mmHg 27%
    09:00 +32°C° 0 mm 1 mps 711 mmHg 21%
    10:00 +35°C° 0 mm 1 mps 710 mmHg 19%
    11:00 +37°C° 0 mm 1 mps 710 mmHg 17%
    12:00 +40°C° 0 mm 1 mps 709 mmHg 16%
    13:00 +41°C° 0 mm 1 mps 709 mmHg 15%
    14:00 +38°C° 0 mm 0 mps 708 mmHg 14%
    15:00 +38°C° 0 mm 0 mps 707 mmHg 14%
    16:00 +36°C° 0 mm 0 mps 707 mmHg 15%
    17:00 +35°C° 0 mm 1 mps 707 mmHg 17%
    18:00 +33°C° 0 mm 1 mps 708 mmHg 19%
    19:00 +32°C° 0 mm 1 mps 708 mmHg 19%
    20:00 +31°C° 0 mm 1 mps 709 mmHg 19%
    21:00 +30°C° 0 mm 1 mps 709 mmHg 20%
    22:00 +29°C° 0 mm 1 mps 709 mmHg 20%
    23:00 +28°C° 0 mm 1 mps 708 mmHg 20%

    22 January, Tuesday

    Time Temperature Precipitation Wind Pressure Humidity
    00:00 +27°C° 0 mm 2 mps 708 mmHg 20%
    01:00 +27°C° 0 mm 2 mps 708 mmHg 20%
    02:00 +26°C° 0 mm 2 mps 707 mmHg 19%
    03:00 +25°C° 0 mm 2 mps 707 mmHg 18%
    04:00 +25°C° 0 mm 2 mps 707 mmHg 18%
    05:00 +25°C° 0 mm 2 mps 708 mmHg 18%
    06:00 +24°C° 0 mm 2 mps 708 mmHg 18%
    07:00 +27°C° 0 mm 2 mps 709 mmHg 16%
    08:00 +29°C° 0 mm 3 mps 709 mmHg 14%
    09:00 +33°C° 0 mm 3 mps 710 mmHg 12%
    10:00 +35°C° 0 mm 2 mps 710 mmHg 13%
    11:00 +38°C° 0 mm 2 mps 709 mmHg 13%
    12:00 +40°C° 0 mm 1 mps 709 mmHg 13%
    13:00 +40°C° 0 mm 1 mps 708 mmHg 13%
    14:00 +40°C° 0 mm 1 mps 707 mmHg 13%
    15:00 +40°C° 0 mm 1 mps 707 mmHg 13%
    16:00 +37°C° 0 mm 1 mps 707 mmHg 14%
    17:00 +36°C° 0 mm 1 mps 707 mmHg 15%
    18:00 +35°C° 0 mm 2 mps 707 mmHg 15%
    19:00 +32°C° 0 mm 2 mps 707 mmHg 15%
    20:00 +31°C° 0 mm 2 mps 708 mmHg 16%
    21:00 +30°C° 0 mm 1 mps 708 mmHg 16%
    22:00 +29°C° 0 mm 1 mps 708 mmHg 16%
    23:00 +28°C° 0 mm 1 mps 708 mmHg 17%

    23 January, Wednesday

    Time Temperature Precipitation Wind Pressure Humidity
    00:00 +27°C° 0 mm 2 mps 707 mmHg 17%
    01:00 +26°C° 0 mm 2 mps 707 mmHg 18%
    02:00 +26°C° 0 mm 2 mps 707 mmHg 18%
    03:00 +25°C° 0 mm 2 mps 706 mmHg 19%
    04:00 +25°C° 0 mm 2 mps 707 mmHg 19%
    05:00 +24°C° 0 mm 2 mps 707 mmHg 19%
    06:00 +24°C° 0 mm 2 mps 708 mmHg 18%
    07:00 +27°C° 0 mm 2 mps 708 mmHg 15%
    08:00 +29°C° 0 mm 2 mps 709 mmHg 12%
    09:00 +32°C° 0 mm 2 mps 710 mmHg 9%
    10:00 +35°C° 0 mm 2 mps 709 mmHg 8%
    11:00 +37°C° 0 mm 2 mps 709 mmHg 8%
    12:00 +38°C° 0 mm 2 mps 708 mmHg 7%
    13:00 +39°C° 0 mm 2 mps 708 mmHg 7%
    14:00 +39°C° 0 mm 1 mps 707 mmHg 8%
    15:00 +40°C° 0 mm 1 mps 706 mmHg 8%
    16:00 +36°C° 0 mm 1 mps 707 mmHg 9%
    17:00 +34°C° 0 mm 1 mps 707 mmHg 10%
    18:00 +32°C° 0 mm 1 mps 707 mmHg 11%
    19:00 +31°C° 0 mm 1 mps 707 mmHg 12%
    20:00 +30°C° 0 mm 1 mps 707 mmHg 13%
    21:00 +28°C° 0 mm 1 mps 708 mmHg 13%
    22:00 +27°C° 0 mm 1 mps 708 mmHg 13%
    23:00 +26°C° 0 mm 1 mps 707 mmHg 13%

    24 January, Thursday

    Time Temperature Precipitation Wind Pressure Humidity
    00:00 +25°C° 0 mm 1 mps 707 mmHg 13%
    01:00 +25°C° 0 mm 1 mps 707 mmHg 13%
    02:00 +24°C° 0 mm 1 mps 707 mmHg 13%
    03:00 +24°C° 0 mm 1 mps 706 mmHg 13%
    04:00 +24°C° 0 mm 1 mps 707 mmHg 13%
    05:00 +23°C° 0 mm 1 mps 707 mmHg 13%
    06:00 +23°C° 0 mm 2 mps 707 mmHg 13%
    07:00 +25°C° 0 mm 2 mps 708 mmHg 11%
    08:00 +28°C° 0 mm 2 mps 709 mmHg 10%
    09:00 +31°C° 0 mm 2 mps 709 mmHg 8%
    10:00 +33°C° 0 mm 1 mps 709 mmHg 7%
    11:00 +36°C° 0 mm 1 mps 708 mmHg 7%
    12:00 +39°C° 0 mm 1 mps 708 mmHg 6%
    13:00 +40°C° 0 mm 1 mps 707 mmHg 6%
    14:00 +37°C° 0 mm 0 mps 707 mmHg 6%
    15:00 +37°C° 0 mm 0 mps 706 mmHg 6%
    16:00 +35°C° 0 mm 0 mps 706 mmHg 7%
    17:00 +32°C° 0 mm 0 mps 706 mmHg 8%
    18:00 +30°C° 0 mm 0 mps 706 mmHg 10%
    19:00 +31°C° 0 mm 1 mps 707 mmHg 10%
    20:00 +30°C° 0 mm 1 mps 707 mmHg 11%
    21:00 +28°C° 0 mm 2 mps 708 mmHg 11%
    22:00 +28°C° 0 mm 1 mps 708 mmHg 12%
    23:00 +27°C° 0 mm 1 mps 707 mmHg 12%
    Show more